Location: Asheville, NC
(35.6000°N, 82.5500°W)
Time: 04:03:29
(UTC-04:00)

KKS-1 - Pass Details

Date: 12 January 2018
Orbit: 638 x 650 km, 98.4° (Epoch: 16 July)

Event Time Altitude Azimuth Distance (km) Brightness Sun altitude
Rises 06:03:33 0° 199° (SSW) 2,925 ? -19.2°
Reaches altitude 10° 06:06:12 10° 215° (SW) 2,019 ? -18.7°
Enters shadow 06:06:44 12° 220° (SW) 1,864 ? -18.6°
